Location: T. Spence Memorial Observatory
(32.7356°N, 82.2098°W)
Time: 19:48:10
(UTC-05:00)

Daily predictions for brighter satellites

Satellite Brightness Start Highest point End
(mag) Time Altitude Azimuth Time Altitude Azimuth Time Altitude Azimuth
SL-8 Rocket 4.1 17:36:06 10° N 17:42:09 56° E 17:48:09 10° SSE
IDEFIX/ARIANE 42P 2.8 17:38:41 10° SE 17:43:39 47° ENE 17:48:36 10° N
Cosmos 1844 3.8 17:39:14 10° SSW 17:44:49 86° WNW 17:50:24 10° NNE
ATLAS 2AS CENTAUR R/B 3.3 17:40:40 10° NNW 17:48:17 45° NE 17:55:22 10° SE
Cosmos 1455 Rocket 3.6 17:46:59 10° NNE 17:51:04 36° E 17:55:10 10° SSE
BREEZE-M DEB (TANK) 3.3 17:45:33 10° NW 17:51:34 64° NE 17:55:09 10° ESE
CZ-3B DEB 2.4 17:49:49 10° WSW 17:52:43 45° NW 17:59:29 10° NE
Cosmos 2366 rocket 4.2 17:47:15 10° N 17:53:24 50° E 17:59:28 10° SSE
KM-V1 4.2 17:52:20 10° WSW 17:54:38 31° S 17:56:29 10° ESE
MSX 4.2 17:50:58 10° SE 17:56:21 43° ENE 18:01:44 10° N
Delta 2 Rocket 3.5 17:53:17 10° SW 17:56:54 55° SSE 18:00:59 10° E
Cosmos 2218 Rocket 4.0 17:51:51 10° N 17:58:04 64° E 18:04:11 10° SSE
CZ-4 R/B 1.6 17:56:24 10° S 18:00:35 82° WSW 18:04:45 10° NNW
Cosmos 2278 Rocket 2.2 17:55:40 10° SSW 18:01:17 77° ESE 18:06:57 10° NNE
SMAP 3.0 17:56:52 10° SSE 18:01:30 74° ENE 18:06:08 10° N
Thor Agena Rocket 3.9 17:59:17 10° N 18:04:28 70° WNW 18:09:42 10° SSW
Cosmos 1238 Rocket 2.1 18:02:06 10° S 18:05:04 81° W 18:08:01 10° N
SJ-12 4.0 18:01:46 10° S 18:05:50 85° W 18:09:57 10° NNW
SL-24 DEB 4.5 18:02:30 10° NNE 18:07:05 48° E 18:11:35 10° SSE
CZ-2C R/B 2.4 18:02:47 10° SSE 18:07:42 88° ENE 18:12:47 10° NNW
OTV 4 0.5 18:04:41 10° WNW 18:07:42 76° SSW 18:10:40 10° ESE
Cosmos 1975 3.2 18:09:34 10° N 18:13:25 40° E 18:17:13 10° SSE
COSMOS 2406 4.1 18:08:16 10° NNW 18:13:50 55° WSW 18:19:24 10° S
Meteor 1-12 Rocket 4.3 18:08:38 10° N 18:14:23 61° E 18:20:13 10° SSE
MOS 1 4.5 18:08:46 10° S 18:14:26 79° WSW 18:20:06 10° NNW
Cosmos 2251 Rocket 3.5 18:10:21 10° NNW 18:15:41 70° ENE 18:20:57 10° SSE
COSMOS 2441 4.4 18:14:28 10° SSE 18:19:14 58° ENE 18:24:02 10° N
SL-27 R/B 3.0 18:18:31 10° NNW 18:22:09 65° WSW 18:25:43 10° S
Cosmos 1484 Rocket 2.8 18:23:15 10° SSE 18:26:55 52° ENE 18:30:34 10° N
Meteor 1-13 Rocket 4.4 18:23:38 10° SSE 18:29:03 52° E 18:34:37 10° NNE
Cosmos 2082 Rocket 3.1 18:26:35 10° N 18:31:09 25° ENE 18:33:41 18° E
NOSS 2-1 (D) 3.6 18:28:03 10° S 18:31:41 44° ESE 18:33:30 25° ENE
NOSS 2-1 (C) 3.6 18:28:44 10° S 18:32:23 43° ESE 18:34:09 26° ENE
Cosmos 1833 Rocket 3.8 18:28:29 10° N 18:32:43 21° ENE 18:33:05 21° ENE
Cosmos 1743 4.1 18:35:16 21° ESE 18:35:16 21° ESE 18:37:14 10° SE
Meteor 2-21 4.5 18:28:55 10° N 18:35:00 59° E 18:41:00 10° SSE
COSMO-SKYMED 1 2.7 18:36:01 10° N 18:40:22 78° WNW 18:44:42 10° SSW
Cosmos 1500 3.0 18:39:43 10° N 18:43:34 82° E 18:47:24 10° S
GRACE-2 3.7 18:43:05 10° S 18:45:52 85° E 18:46:42 41° N
Nadezhda 3 Rocket 3.9 18:39:51 10° S 18:46:00 83° E 18:52:17 10° N
GRACE-1 3.7 18:43:31 10° S 18:46:17 88° E 18:47:12 38° N
Meteor 1-28 Rocket 3.1 18:45:29 21° NNE 18:47:59 72° E 18:51:45 10° S
NOSS 2-1 (E) 3.2 18:47:07 10° SSW 18:50:56 69° ESE 18:52:07 41° NE
Timation 1 Rocket 4.2 18:45:03 10° SSW 18:50:58 77° ESE 18:55:27 18° NNE
GEOS 3 Rocket 3.8 18:53:31 28° ESE 18:55:46 46° NE 19:00:38 10° NNW
Meteor 2-4 Rocket 3.7 18:50:48 10° SSE 18:56:00 50° E 18:58:30 28° NE
Meteor 2-14 Rocket 4.4 18:50:55 10° N 18:57:02 65° E 19:03:06 10° SSE
Tiangong 1 2.3 18:54:28 10° W 18:57:11 30° NNW 18:57:12 30° NNW
Cosmos 2056 Rocket 3.9 18:55:08 10° S 19:00:11 42° ESE 19:00:48 40° E
Cosmos 1025 Rocket 2.9 19:02:25 10° S 19:06:45 69° E 19:07:27 57° NE
ATLAS 3B CENTAUR R/B 3.5 18:53:08 10° W 19:12:20 68° S 19:15:57 35° ESE
Cosmos 921 Rocket 3.5 19:08:19 10° SSW 19:12:27 55° WNW 19:14:34 27° N
COSMOS 2487 3.0 19:10:08 10° NNW 19:13:00 52° NW 19:13:00 52° NW
Cosmos 1624 Rocket 3.9 19:08:51 10° S 19:13:57 63° ESE 19:14:32 58° ENE
Cosmos 375 4.3 19:13:37 10° NNW 19:17:41 78° WSW 19:17:41 78° WSW
Cosmos 1371 Rocket 3.9 19:13:00 10° SSW 19:18:21 89° ESE 19:20:09 43° NNE
Meteor 2-16 Rocket 4.3 19:13:38 10° N 19:19:44 88° W 19:25:49 10° S
ATLAS 2AS CENTAUR R/B 4.4 19:32:06 10° NW 19:39:03 35° WSW 19:45:32 10° S
OTV 4 4.0 19:42:33 10° WSW 19:42:43 10° WSW 19:42:43 10° WSW
Cosmos 1934 Rocket 4.0 19:42:08 10° N 19:48:20 77° W 19:54:36 10° S
Cosmos 2082 Rocket 3.4 20:10:05 10° NW 20:15:16 38° WSW 20:15:50 37° WSW
Cosmos 1833 Rocket 4.1 20:11:29 10° NW 20:14:56 33° WNW 20:14:56 33° WNW
